AC2LB Weather Reports


time (UTC)temp
F
wind
direction
speed
knots
gust
knots
rain 1hr
in
rain 24hr
in
rain mn
in
humidity
%
barometer
mb
20260906113052 72 102 0.0 0.0 0.00 0.00 0.00 92 1011.8
20260906111539 72 102 0.0 0.0 0.00 0.00 0.00 91 1011.3
20260906110038 73 102 0.0 0.0 0.00 0.00 0.00 91 1011.3
20260906104536 73 108 0.0 0.0 0.00 0.00 0.00 91 1011.1
20260906103036 73 108 0.0 0.0 0.00 0.00 0.00 91 1010.9
20260906101534 74 107 0.0 0.9 0.00 0.00 0.00 91 1010.7
20260906100033 74 92 0.0 0.0 0.00 0.00 0.00 91 1010.5
20260906094533 75 91 0.0 0.9 0.00 0.00 0.00 91 1010.4
20260906093032 75 91 0.0 0.9 0.00 0.00 0.00 90 1010.3
20260906091534 75 91 0.0 0.0 0.00 0.00 0.00 90 1010.1
20260906090030 75 91 0.0 0.0 0.00 0.00 0.00 90 1010.2
20260906084531 75 91 0.0 0.0 0.00 0.00 0.00 90 1010.3
20260906083028 75 91 0.0 0.0 0.00 0.00 0.00 90 1010.3
20260906081538 75 91 0.0 0.0 0.00 0.00 0.00 89 1010.3
20260906080025 75 91 0.0 0.0 0.00 0.00 0.00 89 1010.3
20260906074525 75 91 0.0 0.0 0.00 0.00 0.00 89 1010.4
20260906073022 75 91 0.0 0.0 0.00 0.00 0.00 89 1010.7
20260906071520 75 91 0.0 0.0 0.00 0.00 0.00 89 1010.8
20260906070020 75 91 0.0 0.0 0.00 0.00 0.00 88 1010.9
20260906064518 75 91 0.0 0.0 0.00 0.00 0.00 88 1011.1
20260906063019 76 91 0.0 0.0 0.00 0.00 0.00 88 1011.1
20260906061517 75 91 0.0 0.0 0.00 0.00 0.00 88 1010.9
20260906060024 75 91 0.0 0.0 0.00 0.00 0.00 87 1011.0
20260906054515 75 90 0.0 0.0 0.00 0.00 0.00 87 1011.3
20260906053021 75 90 0.0 0.0 0.00 0.00 0.00 87 1011.5
20260906051516 75 90 0.0 0.0 0.00 0.00 0.00 87 1011.3
20260906050028 75 90 0.0 0.0 0.00 0.00 0.00 86 1011.1
20260906044513 76 90 0.0 0.9 0.00 0.00 0.00 86 1011.1
20260906043006 76 99 0.0 0.9 0.00 0.00 0.00 86 1011.6
20260906041502 77 99 0.0 0.9 0.00 0.00 0.00 86 1012.0
20260906040059 78 134 0.0 0.9 0.00 0.00 0.00 85 1012.2
20260906034557 79 70 0.0 0.9 0.00 0.00 0.00 85 1012.3
20260906033058 78 70 0.0 0.0 0.00 0.00 0.00 85 1012.2
20260906031603 78 70 0.0 0.0 0.00 0.00 0.00 85 1011.8
20260906030056 78 65 0.0 0.9 0.00 0.00 0.00 84 1011.4
20260906024556 78 65 0.0 0.9 0.00 0.00 0.00 84 1011.3
20260906023056 78 134 0.0 0.0 0.00 0.00 0.00 84 1011.3
20260906021555 77 134 0.0 0.9 0.00 0.00 0.00 84 1011.5
20260906014553 77 150 0.0 0.0 0.00 0.00 0.00 83 1011.4
20260906013054 77 150 0.0 0.0 0.00 0.00 0.00 83 1011.5
20260906011552 77 150 0.0 0.0 0.00 0.00 0.00 83 1011.4
20260906010052 77 151 0.0 0.0 0.00 0.00 0.00 83 1010.8
20260906004551 78 154 0.0 0.0 0.00 0.00 0.00 83 1010.7
20260906003050 79 154 0.0 0.0 0.00 0.00 0.00 83 1011.3
20260906001549 81 154 0.0 0.0 0.00 0.00 0.00 83 1011.5
20260906000049 82 154 0.0 0.0 0.00 0.00 0.00 83 1011.3
20260905234549 82 80 0.0 2.6 0.00 0.00 0.00 83 1011.3
20260905233049 84 65 0.0 0.9 0.00 0.00 0.00 83 1011.2
20260905231548 84 49 0.0 0.9 0.00 0.00 0.00 82 1010.7
20260905230051 84 69 0.0 0.0 0.00 0.00 0.00 82 1010.7
20260905224601 84 319 0.0 2.6 0.00 0.00 0.00 82 1010.7
20260905223045 85 345 0.0 2.6 0.00 0.00 0.00 82 1010.3
20260905221556 86 80 0.0 7.0 0.00 0.00 0.00 82 1010.3
20260905220046 87 317 0.9 4.3 0.00 0.00 0.00 82 1009.8
20260905214545 89 80 0.0 1.7 0.00 0.00 0.00 83 1009.8
20260905213042 91 271 0.0 3.5 0.00 0.00 0.00 83 1010.2
20260905211543 92 102 1.7 4.3 0.00 0.00 0.00 83 1009.9
20260905210040 93 152 0.0 1.7 0.00 0.00 0.00 84 1010.0
20260905204539 93 74 0.0 0.9 0.00 0.00 0.00 84 1010.2
20260905203049 93 65 0.0 5.2 0.00 0.00 0.00 84 1010.0
20260905201542 94 69 0.9 4.3 0.00 0.00 0.00 85 1009.8
20260905200045 95 64 0.0 1.7 0.00 0.00 0.00 85 1010.0
20260905194533 96 74 0.0 3.5 0.00 0.00 0.00 86 1010.1
20260905193031 95 94 0.0 1.7 0.00 0.00 0.00 86 1010.4
20260905191529 97 59 0.0 3.5 0.00 0.00 0.00 87 1010.7
20260905190026 97 75 0.0 0.9 0.00 0.00 0.00 88 1011.1
20260905184528 96 140 0.0 1.7 0.00 0.00 0.00 89 1011.4
20260905183023 97 118 0.0 0.9 0.00 0.00 0.00 90 1011.5
20260905181521 97 70 0.0 2.6 0.00 0.00 0.00 91 1011.7
20260905180019 97 84 0.0 1.7 0.00 0.00 0.00 92 1011.8
20260905174516 95 127 0.0 0.9 0.00 0.00 0.00 92 1012.0
20260905173021 95 100 0.0 2.6 0.00 0.00 0.00 93 1012.1
20260905171519 95 108 0.0 3.5 0.00 0.00 0.00 94 1012.2
20260905170009 94 64 0.0 3.5 0.00 0.00 0.00 94 1012.5
20260905164506 94 120 0.0 2.6 0.00 0.00 0.00 94 1012.7
20260905163002 93 297 0.0 3.5 0.00 0.00 0.00 95 1013.0
20260905161600 92 42 0.0 4.3 0.00 0.00 0.00 95 1013.2
20260905160125 91 310 0.0 3.5 0.00 0.00 0.00 95 1013.4
20260905154551 89 131 0.0 1.7 0.00 0.00 0.00 95 1013.5
20260905153046 88 14 0.0 1.7 0.00 0.00 0.00 95 1013.7
20260905151542 87 91 0.0 0.9 0.00 0.00 0.00 95 1014.0
20260905150037 86 110 0.0 1.7 0.00 0.00 0.00 95 1014.0
20260905144533 85 127 0.0 0.9 0.00 0.00 0.00 95 1014.1
20260905143030 84 94 0.0 1.7 0.00 0.00 0.00 94 1014.2
20260905141527 83 142 0.0 1.7 0.00 0.00 0.00 94 1014.3
20260905140024 82 129 0.0 0.9 0.00 0.00 0.00 94 1014.4
20260905134521 82 53 0.0 1.7 0.00 0.00 0.00 94 1014.4
20260905133018 81 131 0.0 0.9 0.00 0.00 0.00 94 1014.3
20260905131515 80 335 0.0 2.6 0.00 0.00 0.00 94 1014.4
20260905130012 79 143 0.0 1.7 0.00 0.00 0.00 93 1014.4
20260905124510 79 72 0.0 1.7 0.00 0.00 0.00 93 1014.5
20260905123008 78 150 0.0 3.5 0.00 0.00 0.00 93 1014.3
20260905121507 77 122 0.0 0.9 0.00 0.00 0.00 93 1014.2
20260905120008 77 338 0.0 1.7 0.00 0.00 0.00 92 1014.2
20260905114506 76 105 0.0 0.9 0.00 0.00 0.00 92 1014.3